Time,TemperatureF,DewpointF,PressureIn,WindDirection,WindDirectionDegrees,WindSpeedMPH,WindSpeedGustMPH,Humidity,HourlyPrecipIn,Conditions,Clouds,dailyrainin,SoftwareType,DateUTC
2013-01-11 00:02:00,39.0,35.0,30.00,SE,136,2.0,32.0,86,0.00,,,0.84,,2013-01-11 06:02:00,
2013-01-11 00:12:00,39.0,35.0,30.00,SE,136,2.0,32.0,86,0.00,,,0.84,,2013-01-11 06:12:00,
2013-01-11 00:22:00,39.0,35.0,30.00,East,94,0.0,32.0,86,0.00,,,0.84,,2013-01-11 06:22:00,
2013-01-11 00:32:00,38.0,34.0,30.00,East,94,2.0,10.0,86,0.00,,,0.84,,2013-01-11 06:32:00,
2013-01-11 00:42:00,38.0,34.0,30.00,East,94,2.0,10.0,86,0.00,,,0.84,,2013-01-11 06:42:00,
2013-01-11 00:52:00,38.0,34.0,30.00,SE,132,1.0,10.0,86,0.00,,,0.85,,2013-01-11 06:52:00,
2013-01-11 01:02:00,38.0,34.0,30.00,NNE,24,0.0,10.0,86,0.00,,,0.86,,2013-01-11 07:02:00,
2013-01-11 01:12:00,39.0,35.0,30.00,East,87,2.0,10.0,86,0.00,,,0.88,,2013-01-11 07:12:00,
2013-01-11 01:22:00,39.0,35.0,30.00,East,87,2.0,10.0,86,0.00,,,0.88,,2013-01-11 07:22:00,
2013-01-11 01:32:00,38.0,34.0,30.00,East,98,3.0,10.0,86,0.06,,,0.90,,2013-01-11 07:32:00,
2013-01-11 01:42:00,39.0,35.0,30.00,SE,130,0.0,32.0,86,0.06,,,0.91,,2013-01-11 07:42:00,
2013-01-11 01:52:00,39.0,35.0,30.00,SE,130,0.0,32.0,86,0.06,,,0.91,,2013-01-11 07:52:00,
2013-01-11 02:02:00,39.0,35.0,30.00,ENE,68,2.0,32.0,86,0.05,,,0.91,,2013-01-11 08:02:00,
2013-01-11 02:12:00,39.0,35.0,30.00,NE,50,5.0,32.0,86,0.03,,,0.91,,2013-01-11 08:12:00,
2013-01-11 02:22:00,39.0,35.0,30.00,NE,50,5.0,32.0,86,0.03,,,0.91,,2013-01-11 08:22:00,
2013-01-11 02:32:00,39.0,35.0,30.00,NE,50,5.0,32.0,86,0.03,,,0.91,,2013-01-11 08:32:00,
2013-01-11 02:42:00,39.0,35.0,30.00,NE,50,5.0,32.0,86,0.03,,,0.91,,2013-01-11 08:42:00,
2013-01-11 02:52:00,40.0,36.0,30.00,NE,56,2.0,32.0,86,0.00,,,0.91,,2013-01-11 08:52:00,
2013-01-11 03:02:00,40.0,36.0,30.00,East,85,0.0,32.0,86,0.00,,,0.91,,2013-01-11 09:02:00,
2013-01-11 03:12:00,40.0,36.0,30.00,East,85,0.0,32.0,86,0.00,,,0.91,,2013-01-11 09:12:00,
2013-01-11 03:22:00,40.0,36.0,30.00,East,85,0.0,32.0,86,0.00,,,0.91,,2013-01-11 09:22:00,
2013-01-11 03:32:00,40.0,36.0,30.00,East,85,0.0,32.0,86,0.00,,,0.91,,2013-01-11 09:32:00,
2013-01-11 03:42:00,40.0,36.0,30.00,East,85,0.0,32.0,86,0.00,,,0.91,,2013-01-11 09:42:00,
2013-01-11 03:52:00,40.0,36.0,30.00,East,85,0.0,32.0,86,0.01,,,0.92,,2013-01-11 09:52:00,
2013-01-11 04:02:00,40.0,36.0,30.00,East,85,0.0,32.0,86,0.01,,,0.92,,2013-01-11 10:02:00,
2013-01-11 04:12:00,40.0,36.0,30.00,East,85,0.0,32.0,86,0.01,,,0.92,,2013-01-11 10:12:00,
2013-01-11 04:22:00,39.0,35.0,30.00,East,85,0.0,32.0,86,0.01,,,0.92,,2013-01-11 10:22:00,
2013-01-11 04:32:00,41.0,37.0,30.00,SSW,209,6.0,32.0,86,0.01,,,0.92,,2013-01-11 10:32:00,
2013-01-11 04:42:00,41.0,37.0,30.00,SSW,209,6.0,32.0,86,0.01,,,0.92,,2013-01-11 10:42:00,
2013-01-11 04:52:00,40.0,36.0,30.00,West,265,1.0,32.0,86,0.00,,,0.92,,2013-01-11 10:52:00,
2013-01-11 05:02:00,41.0,37.0,30.00,SW,227,5.0,32.0,86,0.01,,,0.93,,2013-01-11 11:02:00,
2013-01-11 05:12:00,41.0,37.0,30.00,SW,227,5.0,32.0,86,0.01,,,0.93,,2013-01-11 11:12:00,
2013-01-11 05:22:00,42.0,38.0,30.00,SSW,210,6.0,32.0,86,0.01,,,0.93,,2013-01-11 11:22:00,
2013-01-11 05:32:00,44.0,40.0,30.00,SW,234,3.0,32.0,86,0.02,,,0.94,,2013-01-11 11:32:00,
2013-01-11 05:42:00,44.0,40.0,30.00,SW,234,3.0,32.0,86,0.02,,,0.94,,2013-01-11 11:42:00,
2013-01-11 05:52:00,43.0,39.0,30.00,SSW,209,2.0,32.0,86,0.02,,,0.94,,2013-01-11 11:52:00,
2013-01-11 06:03:00,44.0,40.0,30.00,WSW,249,3.0,32.0,86,0.01,,,0.94,,2013-01-11 12:03:00,
2013-01-11 06:12:00,44.0,40.0,30.00,WSW,249,3.0,32.0,86,0.01,,,0.94,,2013-01-11 12:12:00,
2013-01-11 06:22:00,43.0,39.0,30.00,WSW,240,5.0,32.0,86,0.01,,,0.94,,2013-01-11 12:22:00,
2013-01-11 06:32:00,44.0,40.0,30.00,SW,229,3.0,32.0,86,0.00,,,0.94,,2013-01-11 12:32:00,
2013-01-11 06:42:00,44.0,40.0,30.00,SW,229,3.0,32.0,86,0.00,,,0.94,,2013-01-11 12:42:00,
2013-01-11 06:53:00,44.0,40.0,30.00,SW,216,5.0,32.0,86,0.00,,,0.94,,2013-01-11 12:53:00,
2013-01-11 07:02:00,44.0,40.0,30.00,SSW,213,7.0,32.0,86,0.00,,,0.94,,2013-01-11 13:02:00,
2013-01-11 07:12:00,44.0,40.0,30.00,SSW,213,7.0,32.0,86,0.00,,,0.94,,2013-01-11 13:12:00,
2013-01-11 07:22:00,43.0,39.0,30.00,SW,221,7.0,32.0,86,0.00,,,0.94,,2013-01-11 13:22:00,
2013-01-11 07:33:00,43.0,39.0,30.00,SSW,207,3.0,32.0,86,0.00,,,0.94,,2013-01-11 13:33:00,
2013-01-11 07:42:00,43.0,39.0,30.00,SSW,207,3.0,32.0,86,0.00,,,0.94,,2013-01-11 13:42:00,
2013-01-11 07:53:00,43.0,39.0,30.00,SSW,202,3.0,32.0,86,0.00,,,0.94,,2013-01-11 13:53:00,
2013-01-11 08:03:00,43.0,39.0,30.00,SSW,196,5.0,32.0,86,0.00,,,0.94,,2013-01-11 14:03:00,
2013-01-11 08:12:00,42.0,38.0,30.00,SSW,197,3.0,32.0,86,0.00,,,0.94,,2013-01-11 14:12:00,
2013-01-11 08:22:00,42.0,38.0,30.00,SSW,197,3.0,32.0,86,0.00,,,0.94,,2013-01-11 14:22:00,
2013-01-11 08:33:00,43.0,39.0,30.00,South,185,5.0,32.0,86,0.00,,,0.94,,2013-01-11 14:33:00,
2013-01-11 08:42:00,42.0,38.0,30.00,SW,214,5.0,32.0,86,0.00,,,0.94,,2013-01-11 14:42:00,
2013-01-11 08:53:00,42.0,38.0,30.00,SW,214,5.0,32.0,86,0.00,,,0.94,,2013-01-11 14:53:00,
2013-01-11 09:03:00,43.0,39.0,30.00,SSW,204,5.0,32.0,86,0.00,,,0.94,,2013-01-11 15:03:00,
2013-01-11 09:12:00,43.0,39.0,30.00,SSW,202,5.0,32.0,86,0.00,,,0.94,,2013-01-11 15:12:00,
2013-01-11 09:23:00,43.0,39.0,30.00,SSW,202,5.0,32.0,86,0.00,,,0.94,,2013-01-11 15:23:00,
2013-01-11 09:32:00,44.0,40.0,30.00,SSW,205,6.0,32.0,86,0.00,,,0.94,,2013-01-11 15:32:00,
2013-01-11 09:42:00,44.0,40.0,30.00,SSW,205,6.0,32.0,86,0.00,,,0.94,,2013-01-11 15:42:00,
2013-01-11 09:52:00,44.0,40.0,30.00,SSW,208,6.0,32.0,86,0.00,,,0.94,,2013-01-11 15:52:00,
2013-01-11 10:03:00,45.0,41.0,30.00,SSW,206,8.0,32.0,86,0.00,,,0.94,,2013-01-11 16:03:00,
2013-01-11 10:12:00,45.0,41.0,30.00,SSW,200,8.0,32.0,86,0.00,,,0.94,,2013-01-11 16:12:00,
2013-01-11 10:22:00,45.0,41.0,30.00,SSW,200,8.0,32.0,86,0.00,,,0.94,,2013-01-11 16:22:00,
2013-01-11 10:33:00,45.0,41.0,30.00,SSW,195,6.0,32.0,86,0.00,,,0.94,,2013-01-11 16:33:00,
2013-01-11 10:42:00,46.0,42.0,30.00,South,191,7.0,32.0,86,0.00,,,0.94,,2013-01-11 16:42:00,
2013-01-11 10:53:00,46.0,42.0,30.00,South,191,7.0,32.0,86,0.00,,,0.94,,2013-01-11 16:53:00,
2013-01-11 11:03:00,46.0,42.0,30.00,South,176,3.0,32.0,86,0.00,,,0.94,,2013-01-11 17:03:00,
2013-01-11 11:12:00,46.0,42.0,30.00,SSW,202,5.0,32.0,86,0.00,,,0.94,,2013-01-11 17:12:00,
2013-01-11 11:22:00,46.0,42.0,30.00,SSW,202,5.0,32.0,86,0.00,,,0.94,,2013-01-11 17:22:00,
2013-01-11 11:33:00,47.0,43.0,30.00,SW,218,5.0,32.0,86,0.00,,,0.94,,2013-01-11 17:33:00,
2013-01-11 11:43:00,47.0,43.0,30.00,SW,218,5.0,32.0,86,0.00,,,0.94,,2013-01-11 17:43:00,
2013-01-11 11:53:00,47.0,43.0,30.00,SSW,204,6.0,32.0,86,0.00,,,0.94,,2013-01-11 17:53:00,
2013-01-11 12:03:00,48.0,44.0,30.00,South,172,5.0,32.0,86,0.00,,,0.94,,2013-01-11 18:03:00,
2013-01-11 12:12:00,48.0,44.0,30.00,South,172,5.0,32.0,86,0.00,,,0.94,,2013-01-11 18:12:00,
2013-01-11 12:23:00,48.0,44.0,30.00,SSW,196,6.0,32.0,86,0.00,,,0.94,,2013-01-11 18:23:00,
2013-01-11 12:32:00,48.0,44.0,30.00,SW,231,5.0,32.0,86,0.00,,,0.94,,2013-01-11 18:32:00,
2013-01-11 12:43:00,48.0,44.0,30.00,SW,231,5.0,32.0,86,0.00,,,0.94,,2013-01-11 18:43:00,
2013-01-11 12:53:00,48.0,44.0,30.00,SW,231,5.0,32.0,86,0.00,,,0.94,,2013-01-11 18:53:00,
2013-01-11 13:02:00,48.0,44.0,30.00,SW,231,5.0,32.0,86,0.00,,,0.94,,2013-01-11 19:02:00,
2013-01-11 13:12:00,48.0,44.0,30.00,SW,231,5.0,32.0,86,0.00,,,0.94,,2013-01-11 19:12:00,
2013-01-11 13:33:00,51.0,47.0,30.00,South,178,8.0,32.0,86,0.01,,,0.95,,2013-01-11 19:33:00,
2013-01-11 13:43:00,51.0,47.0,30.00,South,178,8.0,32.0,86,0.01,,,0.95,,2013-01-11 19:43:00,
2013-01-11 13:53:00,51.0,47.0,30.00,South,175,8.0,32.0,86,0.00,,,0.95,,2013-01-11 19:53:00,
2013-01-11 14:03:00,52.0,48.0,30.00,South,188,5.0,32.0,86,0.00,,,0.95,,2013-01-11 20:03:00,
2013-01-11 14:12:00,52.0,48.0,30.00,South,188,5.0,32.0,86,0.00,,,0.95,,2013-01-11 20:12:00,
2013-01-11 14:22:00,52.0,48.0,30.00,SSE,167,8.0,32.0,86,0.00,,,0.95,,2013-01-11 20:22:00,
2013-01-11 14:33:00,52.0,48.0,30.00,South,189,8.0,32.0,86,0.00,,,0.95,,2013-01-11 20:33:00,
2013-01-11 14:43:00,52.0,48.0,30.00,South,189,8.0,32.0,86,0.00,,,0.95,,2013-01-11 20:43:00,
2013-01-11 14:53:00,53.0,49.0,30.00,SSE,163,6.0,32.0,86,0.00,,,0.95,,2013-01-11 20:53:00,
2013-01-11 15:03:00,53.0,49.0,30.00,SSE,163,6.0,32.0,86,0.00,,,0.95,,2013-01-11 21:03:00,
2013-01-11 15:12:00,53.0,49.0,30.00,South,175,7.0,32.0,86,0.00,,,0.95,,2013-01-11 21:12:00,
2013-01-11 15:23:00,53.0,49.0,30.00,South,175,7.0,32.0,86,0.00,,,0.95,,2013-01-11 21:23:00,
2013-01-11 15:32:00,52.0,48.0,30.00,South,173,7.0,32.0,86,0.00,,,0.95,,2013-01-11 21:32:00,
2013-01-11 15:43:00,52.0,48.0,30.00,South,173,7.0,32.0,86,0.00,,,0.95,,2013-01-11 21:43:00,
2013-01-11 15:53:00,52.0,48.0,30.00,South,169,9.0,32.0,86,0.00,,,0.95,,2013-01-11 21:53:00,
2013-01-11 16:02:00,51.0,47.0,30.00,SSE,165,6.0,32.0,86,0.00,,,0.95,,2013-01-11 22:02:00,
2013-01-11 16:12:00,51.0,47.0,30.00,SSE,163,6.0,32.0,86,0.00,,,0.95,,2013-01-11 22:12:00,
2013-01-11 16:22:00,51.0,47.0,30.00,SSE,163,6.0,32.0,86,0.00,,,0.95,,2013-01-11 22:22:00,
2013-01-11 16:33:00,51.0,47.0,30.00,SSE,163,7.0,32.0,86,0.00,,,0.94,,2013-01-11 22:33:00,
2013-01-11 16:42:00,51.0,47.0,30.00,SSE,163,7.0,32.0,86,0.00,,,0.94,,2013-01-11 22:42:00,
2013-01-11 16:53:00,51.0,47.0,30.00,SSE,164,6.0,32.0,86,0.00,,,0.93,,2013-01-11 22:53:00,
2013-01-11 17:02:00,51.0,47.0,30.00,SSE,164,6.0,32.0,86,0.00,,,0.93,,2013-01-11 23:02:00,
2013-01-11 17:12:00,51.0,47.0,30.00,South,170,7.0,32.0,86,0.00,,,0.93,,2013-01-11 23:12:00,
2013-01-11 17:22:00,51.0,47.0,30.00,South,170,7.0,32.0,86,0.00,,,0.93,,2013-01-11 23:22:00,
2013-01-11 17:32:00,51.0,47.0,30.00,South,174,8.0,32.0,86,0.00,,,0.93,,2013-01-11 23:32:00,
2013-01-11 17:42:00,51.0,47.0,30.00,South,174,8.0,32.0,86,0.00,,,0.93,,2013-01-11 23:42:00,
2013-01-11 17:53:00,51.0,47.0,30.00,South,177,8.0,32.0,86,0.00,,,0.93,,2013-01-11 23:53:00,
2013-01-11 18:02:00,51.0,47.0,30.00,South,170,8.0,32.0,86,0.00,,,0.93,,2013-01-12 00:02:00,
2013-01-11 18:12:00,51.0,47.0,30.00,South,174,8.0,32.0,86,0.00,,,0.92,,2013-01-12 00:12:00,
2013-01-11 18:22:00,51.0,47.0,30.00,South,174,8.0,32.0,86,0.00,,,0.92,,2013-01-12 00:22:00,
2013-01-11 18:32:00,51.0,47.0,30.00,South,171,9.0,32.0,86,0.00,,,0.91,,2013-01-12 00:32:00,
2013-01-11 18:42:00,51.0,47.0,30.00,South,171,9.0,32.0,86,0.00,,,0.91,,2013-01-12 00:42:00,
2013-01-11 18:53:00,51.0,47.0,30.00,South,177,7.0,32.0,86,0.00,,,0.90,,2013-01-12 00:53:00,
2013-01-11 19:02:00,51.0,47.0,30.00,SSE,162,10.0,32.0,86,0.00,,,0.89,,2013-01-12 01:02:00,
2013-01-11 19:12:00,51.0,47.0,30.00,SSE,162,10.0,32.0,86,0.00,,,0.89,,2013-01-12 01:12:00,
2013-01-11 19:22:00,51.0,47.0,30.00,SSW,199,7.0,32.0,86,0.00,,,0.89,,2013-01-12 01:22:00,
2013-01-11 19:32:00,52.0,48.0,30.00,South,179,10.0,32.0,86,0.00,,,0.89,,2013-01-12 01:32:00,
2013-01-11 19:42:00,52.0,48.0,30.00,South,179,10.0,32.0,86,0.00,,,0.89,,2013-01-12 01:42:00,
2013-01-11 19:52:00,52.0,48.0,30.00,SSW,195,9.0,32.0,86,0.00,,,0.86,,2013-01-12 01:52:00,
2013-01-11 20:02:00,52.0,48.0,30.00,SW,234,7.0,32.0,86,0.00,,,0.83,,2013-01-12 02:02:00,
2013-01-11 20:12:00,52.0,48.0,30.00,SW,234,7.0,32.0,86,0.00,,,0.83,,2013-01-12 02:12:00,
2013-01-11 20:22:00,52.0,48.0,30.00,SSW,196,9.0,32.0,86,0.00,,,0.79,,2013-01-12 02:22:00,
2013-01-11 20:32:00,52.0,48.0,30.00,SSE,166,9.0,32.0,86,0.00,,,0.72,,2013-01-12 02:32:00,
2013-01-11 20:42:00,52.0,48.0,30.00,SSE,166,9.0,32.0,86,0.00,,,0.72,,2013-01-12 02:42:00,
2013-01-11 20:53:00,52.0,48.0,30.00,SSW,206,7.0,32.0,86,0.00,,,0.62,,2013-01-12 02:53:00,
2013-01-11 21:02:00,52.0,48.0,30.00,South,191,9.0,32.0,86,0.00,,,0.49,,2013-01-12 03:02:00,
2013-01-11 21:12:00,52.0,48.0,30.00,South,191,9.0,32.0,86,0.00,,,0.49,,2013-01-12 03:12:00,
2013-01-11 21:22:00,52.0,48.0,30.00,SSW,196,10.0,32.0,86,0.00,,,0.36,,2013-01-12 03:22:00,
2013-01-11 21:32:00,51.0,47.0,30.00,South,187,7.0,32.0,86,0.00,,,0.22,,2013-01-12 03:32:00,
2013-01-11 21:42:00,51.0,47.0,30.00,South,187,7.0,32.0,86,0.00,,,0.22,,2013-01-12 03:42:00,
2013-01-11 21:53:00,52.0,48.0,30.00,SSW,193,7.0,32.0,86,0.00,,,0.16,,2013-01-12 03:53:00,
2013-01-11 22:02:00,52.0,48.0,30.00,South,186,8.0,32.0,86,0.00,,,0.13,,2013-01-12 04:02:00,
2013-01-11 22:12:00,52.0,48.0,30.00,SSW,206,9.0,32.0,86,0.00,,,0.12,,2013-01-12 04:12:00,
2013-01-11 22:22:00,52.0,48.0,30.00,SSW,206,9.0,32.0,86,0.00,,,0.12,,2013-01-12 04:22:00,
2013-01-11 22:32:00,52.0,48.0,30.00,SSW,211,7.0,32.0,86,0.00,,,0.12,,2013-01-12 04:32:00,
2013-01-11 22:42:00,52.0,48.0,30.00,SSW,211,7.0,32.0,86,0.00,,,0.12,,2013-01-12 04:42:00,
2013-01-11 22:52:00,52.0,48.0,30.00,South,188,9.0,32.0,86,0.00,,,0.12,,2013-01-12 04:52:00,
2013-01-11 23:03:00,52.0,48.0,30.00,SW,219,9.0,32.0,86,0.00,,,0.11,,2013-01-12 05:03:00,
2013-01-11 23:12:00,52.0,48.0,30.00,SW,219,9.0,32.0,86,0.00,,,0.11,,2013-01-12 05:12:00,
2013-01-11 23:22:00,52.0,48.0,30.00,South,174,9.0,32.0,86,0.00,,,0.11,,2013-01-12 05:22:00,
2013-01-11 23:32:00,52.0,48.0,30.00,SW,232,9.0,32.0,86,0.00,,,0.11,,2013-01-12 05:32:00,
2013-01-11 23:42:00,52.0,48.0,30.00,SW,232,9.0,32.0,86,0.00,,,0.11,,2013-01-12 05:42:00,
2013-01-11 23:52:00,52.0,48.0,30.00,South,181,6.0,32.0,86,0.00,,,0.11,,2013-01-12 05:52:00,